Torna al catalogo

NOAA 16 DEB

AttivoPO
NORAD 41291·DEBRIS·🇺🇸 United States

Lanciato Sep 21, 2000 da Vandenberg Space Force Base

Loading…

Prossimi Passaggi (prossime 24 ore)

TLE

AggiornatoSource: Space-Track

Epoca: Sep 14, 2026, 03:59 UTC

1 41291U 00055GT  26257.16665175  .00004940  00000-0  10506-2 0  9997
2 41291  98.9727 157.9579 0032842 130.6453 229.7608 14.59207055563685

Traccia NOAA 16 DEB in tempo reale con AllMySat

Download on the App Store